Regional Weather Roundup
Issued by NWS Albany, NY

Home | Current Version | Previous Version | Text Only | Print | Product List | Glossary On
Versions: 1 2 3 4 5 6 7 8 9 10 11 12 13 14 15 16 17 18 19 20 21 22 23 24 25 26 27 28 29 30 31 32 33 34 35 36 37 38 39 40 41 42 43 44 45 46 47 48 49 50
000
ASUS41 KALY 170210
RWRALY

NEW YORK STATE HOURLY WEATHER ROUNDUP
NATIONAL WEATHER SERVICE ALBANY NY
900 PM EST SAT DEC 16 2017

NOTE: "FAIR" INDICATES FEW OR NO CLOUDS BELOW 12,000 FEET WITH NO
SIGNIFICANT WEATHER AND/OR NO OBSTRUCTIONS TO VISIBILITY.

NYZ032-033-038>043-046>054-057>066-NYZ062>081-082-084-170300-
EAST


CITY           SKY/WX    TMP DP  RH WIND       PRES   REMARKS
ALBANY         PTCLDY    21  13  71 W5        30.17R WCI  15
GLENS FALLS    CLEAR      4   2  91 CALM      30.16R
POUGHKEEPSIE   CLOUDY    30  19  63 N7        30.16R WCI  23
NEWBURGH       CLOUDY    30  21  69 W7        30.15R WCI  23
MONTGOMERY     CLOUDY    30  19  63 W3        30.15R
WHITE PLAINS   CLOUDY    33  23  66 NW13      30.13R WCI  24
ISLIP          CLOUDY    36  27  69 NW9       30.14R WCI  29
NEW YORK CITY  CLOUDY    38  26  62 NW10      30.15R WCI  31
CENTRAL PARK   CLOUDY    37  24  59 VRB5      30.17R WCI  33
$$

NYZ005>009-017-018-044>046-055-056-170300-
CENTRAL


CITY           SKY/WX    TMP DP  RH WIND       PRES   REMARKS
FULTON         CLEAR     10   5  80 CALM      30.18R
SYRACUSE       CLOUDY    18  17  96 W7        30.18R WCI   9
ROME           CLOUDY     8   7  95 CALM      30.19R
ELMIRA         CLOUDY    25  19  78 CALM      30.16R
BINGHAMTON     CLOUDY    20  16  84 NW6       30.10R WCI  12
MONTICELLO     CLOUDY    23  18  81 W3        30.11R
$$

NYZ026>034-041>043-087-170300-
NORTH


CITY           SKY/WX    TMP DP  RH WIND       PRES   REMARKS
WATERTOWN      CLOUDY     7   2  80 E6        30.20R WCI  -3
FORT DRUM      NOT AVBL
OGDENSBURG     FAIR       3  -2  80 CALM      30.21R
MASSENA        CLOUDY    10   5  80 W3        30.22R
SARANAC LAKE   CLEAR     -1  -4  87 CALM      30.06R
PLATTSBURGH    CLEAR     13   3  64 CALM      30.19R
$$

NYZ001>004-010>016-019>021-085-170300-
WEST


CITY           SKY/WX    TMP DP  RH WIND       PRES   REMARKS
NIAGARA FALLS  CLOUDY    18   9  68 E3        30.19R
BUFFALO        CLOUDY    22  18  85 CALM      30.18R
DUNKIRK        CLOUDY    24  20  84 NE7       30.17R WCI  16
JAMESTOWN      CLOUDY    25  23  92 NE5       30.09F WCI  19
WELLSVILLE     CLOUDY    25  20  81 CALM      30.09R
ROCHESTER      CLOUDY    21  11  65 W3        30.19R
PENN YAN       CLOUDY    23  14  68 CALM      30.16R
$$

             KEY
       WCI = WIND CHILL INDEX
       VSB = VISIBILITY
       HX  = HEAT INDEX
$$



USA.gov is the U.S. government's official web portal to all federal, state and local government web resources and services.